Regional Weather Roundup
Issued by NWS

Home | Current Version | Previous Version | Text Only | Print | Product List | Glossary On
Versions: 1 2 3 4 5 6 7 8 9 10 11 12 13 14 15 16 17 18 19 20 21 22 23 24 25 26 27 28 29 30 31 32 33 34 35 36 37 38 39 40 41 42 43 44 45 46 47 48 49 50
000
ASUS43 KTOP 081208
RWRKS

WEATHER ROUNDUP FOR KANSAS
NATIONAL WEATHER SERVICE GOODLAND KS
600 AM CST MON FEB 08 2016

NOTE:  "FAIR" INDICATES FEW OR NO CLOUDS BELOW 12,000 FEET WITH NO
SIGNIFICANT WEATHER AND/OR OBSTRUCTIONS TO VISIBILITY.

KSZ001>006-013>018-027>032-041>047-081300-
NORTHWEST KANSAS

CITY           SKY/WX    TMP DP  RH WIND       PRES   REMARKS
GOODLAND       CLEAR     21  10  62 NW20      30.30S WCI   6
6HR MIN TEMP:  21; 6HR MAX TEMP:  27;

HAYS           CLEAR     30  10  43 NW23G30   30.25R WCI  17
HILL CITY      CLEAR     28  15  58 NW22G32   30.26S WCI  14
6HR MIN TEMP:  26; 6HR MAX TEMP:  30;

RUSSELL        CLEAR     29  17  61 NW24      30.22R WCI  15
6HR MIN TEMP:  29; 6HR MAX TEMP:  33;

$$

KSZ061>065-074>080-084>089-081300-
SOUTHWEST KANSAS

CITY           SKY/WX    TMP DP  RH WIND       PRES   REMARKS
DODGE CITY     CLEAR     27  11  51 NW16G23   30.31R WCI  15
6HR MIN TEMP:  27; 6HR MAX TEMP:  33;

ELKHART          N/A     28  10  46 W16         N/A  WCI  16
GARDEN CITY    CLEAR     26  11  52 NW14      30.33R WCI  14
6HR MIN TEMP:  26; 6HR MAX TEMP:  33;

GREAT BEND     CLEAR     28  12  50 NW22G29   30.25S WCI  15
LIBERAL        CLEAR     28  10  47 NW15      30.36F WCI  17
PRATT          CLEAR     27  14  57 NW21G26   30.26S WCI  13
6HR MIN TEMP:  26; 6HR MAX TEMP:  32;

$$

KSZ066>073-081>083-090>101-081300-
SOUTHEAST KANSAS

CITY           SKY/WX    TMP DP  RH WIND       PRES   REMARKS
CHANUTE        PTCLDY    34  18  52 NW18G28   30.09S WCI  23
6HR MIN TEMP:  34; 6HR MAX TEMP:  37;

COFFEYVILLE    PTCLDY    36  18  48 NW15G24   30.12F WCI  27
6HR MIN TEMP:  35; 6HR MAX TEMP:  40;

HUTCHINSON     CLEAR     31  17  56 NW17      30.20S WCI  19
6HR MIN TEMP:  31; 6HR MAX TEMP:  38;

MEDICINE LODGE   N/A     30  16  56 NW13G20   30.26S WCI  20
NEWTON         CLEAR     30  16  55 NW24G31   30.16S WCI  16
PARSONS        CLEAR     35  18  49 NW18G32   30.11S WCI  24
6HR MIN TEMP:  34; 6HR MAX TEMP:  38;

WICHITA INTL   PTCLDY    33  17  51 NW20G29   30.19R WCI  21
6HR MIN TEMP:  33; 6HR MAX TEMP:  38;

WICHITA JABRA  CLEAR     33  17  51 NW23G35   30.16S WCI  21
6HR MIN TEMP:  33; 6HR MAX TEMP:  37;

WICHITA MCCONL CLEAR     34  17  50 NW17G25   30.17R WCI  23
WINFIELD       CLEAR     32  19  58 NW16      30.19S WCI  21
6HR MIN TEMP:  32; 6HR MAX TEMP:  37;

$$

KSZ007>012-019>026-033>040-048>060-102>105-081300-
NORTHEAST KANSAS

CITY           SKY/WX    TMP DP  RH WIND       PRES   REMARKS
CONCORDIA      CLEAR     30  18  60 W12       30.14R WCI  20
6HR MIN TEMP:  30; 6HR MAX TEMP:  34;

EMPORIA        CLOUDY    34  20  56 NW23G32   30.08F WCI  22
6HR MIN TEMP:  31; 6HR MAX TEMP:  37;

LAWRENCE       CLOUDY    35  20  54 NW15G30   30.03R WCI  25
6HR MIN TEMP:  34; 6HR MAX TEMP:  38; 6HR PCP: TRACE;

MANHATTAN      MOCLDY    36  15  42 NW14G30   30.12R WCI  27
6HR MIN TEMP:  33; 6HR MAX TEMP:  38;

MARYSVILLE     CLOUDY    32  21  64 NW26G33   30.06R WCI  18
OLATHE IND     CLOUDY    34  20  56 NW14G35   30.00S WCI  25
6HR MIN TEMP:  33; 6HR MAX TEMP:  36; 6HR PCP: TRACE;

OLATHE EXE     LGT SNOW  31  24  75 NW16G26   30.00R WCI  20
6HR MIN TEMP:  31; 6HR MAX TEMP:  37; 6HR PCP: TRACE;

SALINA         CLEAR     32  17  54 W18       30.18R WCI  20
6HR MIN TEMP:  32; 6HR MAX TEMP:  36;

TOPEKA BILLARD CLOUDY    36  19  50 NW22G38   30.04S WCI  25
6HR MIN TEMP:  36; 6HR MAX TEMP:  40; 6HR PCP: TRACE;

TOPEKA FORBES  CLOUDY    37  19  48 NW26G39   30.03R WCI  25
6HR MIN TEMP:  36; 6HR MAX TEMP:  40; 6HR PCP: TRACE;

$$




USA.gov is the U.S. government's official web portal to all federal, state and local government web resources and services.